EW3708 Weather Reports


time (UTC)temp
F
wind
direction
speed
knots
gust
knots
rain 1hr
in
rain 24hr
in
rain mn
in
humidity
%
barometer
mb
20260831193050 68 198 0.0 0.9 0.02 0.05 0.04 90 1018.1
20260831191548 68 198 0.0 0.9 0.01 0.04 0.03 89 1018.3
20260831190057 68 198 0.0 0.9 0.02 0.04 0.03 90 1018.7
20260831184545 67 202 0.0 1.7 0.03 0.04 0.03 90 1018.7
20260831183045 67 204 0.0 0.0 0.02 0.03 0.02 89 1018.9
20260831181554 67 204 0.0 0.0 0.02 0.03 0.02 87 1019.1
20260831180044 68 204 0.0 1.7 0.01 0.02 0.01 86 1019.1
20260831174550 69 182 0.9 1.7 0.00 0.01 0.00 83 1019.2
20260831173043 69 182 0.0 2.6 0.00 0.01 0.00 81 1019.2
20260831171544 69 182 0.0 1.7 0.00 0.01 0.00 80 1019.1
20260831170042 69 182 0.0 1.7 0.00 0.01 0.00 79 1019.1
20260831164541 69 182 0.9 2.6 0.00 0.01 0.00 80 1019.2
20260831163043 69 182 0.0 0.9 0.00 0.01 0.00 79 1019.2
20260831161540 70 182 0.0 2.6 0.00 0.01 0.00 76 1019.1
20260831160100 70 173 0.9 2.6 0.00 0.01 0.00 76 1019.1
20260831154552 70 167 0.9 4.3 0.00 0.01 0.00 75 1019.2
20260831153124 70 171 1.7 4.3 0.00 0.01 0.00 77 1019.2
20260831151548 69 145 0.0 2.6 0.00 0.01 0.00 80 1019.2
20260831150046 69 144 0.0 1.7 0.00 0.01 0.00 80 1019.1
20260831144542 68 143 0.9 1.7 0.00 0.01 0.00 83 1019.2
20260831143040 67 49 0.0 1.7 0.00 0.01 0.00 86 1019.2
20260831141543 67 49 0.0 0.9 0.00 0.01 0.00 87 1019.4
20260831140037 66 49 0.0 0.9 0.00 0.01 0.00 86 1019.4
20260831134533 66 49 0.0 0.0 0.00 0.01 0.00 89 1019.2
20260831133033 65 49 0.0 0.0 0.00 0.01 0.00 90 1019.3
20260831131533 65 49 0.0 0.0 0.00 0.01 0.00 92 1019.3
20260831130040 64 49 0.0 0.0 0.00 0.01 0.00 92 1019.1
20260831124529 64 49 0.0 0.0 0.00 0.01 0.00 93 1019.2
20260831123041 64 49 0.0 0.0 0.00 0.01 0.00 94 1019.2
20260831121536 63 46 0.0 0.0 0.00 0.01 0.00 94 1019.3
20260831120053 63 46 0.0 0.0 0.00 0.01 0.00 94 1019.2
20260831114532 63 46 0.0 0.0 0.00 0.01 0.00 94 1019.3
20260831113026 63 44 0.0 0.0 0.00 0.01 0.00 94 1019.1
20260831111525 63 44 0.0 0.0 0.00 0.01 0.00 94 1019.1
20260831110023 63 44 0.0 0.0 0.00 0.01 0.00 93 1018.9
20260831104535 63 44 0.0 0.0 0.00 0.01 0.00 93 1018.8
20260831103021 63 44 0.0 0.0 0.00 0.01 0.00 93 1018.5
20260831101524 63 44 0.0 0.0 0.00 0.01 0.00 93 1018.5
20260831100026 63 44 0.0 0.0 0.00 0.01 0.00 93 1018.3
20260831094520 63 44 0.0 0.0 0.00 0.01 0.00 93 1018.6
20260831093019 63 44 0.0 0.0 0.00 0.01 0.00 93 1018.6
20260831091522 63 44 0.0 0.0 0.00 0.01 0.00 93 1018.6
20260831090018 63 44 0.0 0.0 0.00 0.01 0.00 93 1018.4
20260831084517 63 44 0.0 0.0 0.00 0.01 0.00 93 1018.4
20260831083016 63 44 0.0 0.0 0.00 0.01 0.00 93 1018.2
20260831081530 63 44 0.0 0.0 0.00 0.01 0.00 93 1018.5
20260831080013 63 44 0.0 0.0 0.00 0.01 0.00 93 1018.4
20260831074517 63 44 0.0 0.0 0.00 0.01 0.00 93 1018.5
20260831073011 63 44 0.0 0.0 0.00 0.01 0.00 93 1018.5
20260831071510 63 44 0.0 0.0 0.00 0.01 0.00 93 1018.6
20260831070020 64 44 0.0 0.0 0.00 0.01 0.00 93 1018.6
20260831064509 64 44 0.0 0.0 0.00 0.01 0.00 93 1018.5
20260831063007 64 44 0.0 0.0 0.00 0.01 0.00 93 1018.6
20260831061507 64 44 0.0 0.0 0.00 0.01 0.00 93 1018.8
20260831060006 64 44 0.0 0.0 0.00 0.01 0.00 93 1018.6
20260831054504 64 44 0.0 0.0 0.00 0.01 0.00 93 1018.7
20260831053004 64 44 0.0 0.0 0.00 0.01 0.00 93 1018.7
20260831051502 64 44 0.0 0.0 0.00 0.01 0.00 93 1018.8
20260831050002 64 44 0.0 0.0 0.00 0.01 0.00 92 1018.9
20260831044604 64 44 0.0 0.0 0.00 0.01 0.00 92 1019.1
20260831043059 65 44 0.0 0.0 0.00 0.01 0.00 93 1019.0
20260831041557 65 44 0.0 0.0 0.00 0.01 0.00 92 1018.9
20260831040056 65 44 0.0 0.0 0.00 0.01 0.00 92 1018.9
20260831034554 65 44 0.0 0.0 0.00 0.01 0.01 92 1019.1
20260831033101 65 44 0.0 0.0 0.00 0.01 0.01 92 1019.1
20260831031553 66 44 0.0 0.0 0.00 0.01 0.01 92 1019.1
20260831030053 66 44 0.0 0.0 0.00 0.01 0.01 92 1019.2
20260831024604 66 44 0.0 0.0 0.00 0.01 0.01 92 1019.2
20260831023051 66 44 0.0 0.0 0.00 0.01 0.01 92 1019.2
20260831021558 66 44 0.0 0.0 0.00 0.01 0.01 92 1019.2
20260831020053 66 44 0.0 0.0 0.00 0.01 0.01 91 1019.3
20260831014550 67 44 0.0 0.0 0.00 0.01 0.01 91 1019.3
20260831013050 67 44 0.0 0.0 0.00 0.01 0.01 91 1019.3
20260831011551 67 44 0.0 0.0 0.00 0.01 0.01 90 1019.2
20260831010121 68 44 0.0 0.0 0.00 0.01 0.01 90 1019.1
20260831004551 68 44 0.0 0.0 0.01 0.01 0.01 89 1018.7
20260831003047 68 44 0.0 0.0 0.01 0.01 0.01 89 1018.5
20260831001558 69 44 0.0 0.0 0.01 0.01 0.01 88 1018.6
20260831000047 69 44 0.0 0.9 0.01 0.01 0.01 86 1018.5
20260830234546 70 44 0.0 0.9 0.00 0.00 0.00 84 1018.3
20260830233046 71 44 0.0 0.9 0.00 0.00 0.00 82 1018.0
20260830231546 71 44 0.0 0.9 0.00 0.00 0.00 82 1017.9
20260830230050 71 159 0.0 1.7 0.00 0.00 0.00 81 1017.8
20260830224551 71 159 0.0 0.9 0.00 0.00 0.00 80 1018.0
20260830223044 72 159 0.0 1.7 0.00 0.00 0.00 80 1018.0
20260830221544 72 159 0.0 0.9 0.00 0.00 0.00 80 1018.1
20260830220047 72 159 0.0 0.9 0.00 0.00 0.00 80 1018.1
20260830214544 72 159 0.0 0.9 0.00 0.00 0.00 79 1017.9
20260830213040 72 159 0.0 0.0 0.00 0.00 0.00 79 1017.9
20260830211540 73 159 0.0 1.7 0.00 0.00 0.00 78 1017.7
20260830210039 73 161 0.0 0.9 0.00 0.00 0.00 78 1017.8
20260830204539 74 161 0.0 1.7 0.00 0.00 0.00 76 1017.9
20260830203037 74 136 0.0 1.7 0.00 0.00 0.00 76 1017.8
20260830201535 74 132 0.0 2.6 0.00 0.00 0.00 74 1018.0
20260830200034 74 246 0.0 2.6 0.00 0.00 0.00 73 1018.1
20260830194535 75 323 0.0 2.6 0.00 0.00 0.00 72 1018.2